Overview Statistics Trail Chart Weather Telemetry Raw packets
 

This is the latest recevied weather packets stored in our database for station/object SV9TNF-56. If no packets are shown the sender has not sent any weather packets the latest 10 day(s).

<< 7 8 9 10 11 12 13 >>
Time Temp. Humidity Pressure Rain* Wind** Luminosity Snow
1788604660 26.67° C 52% 1013.2 hPa 0 mm 15.2 m/s, 213° - -
1788604382 26.67° C 51% 1013.2 hPa 0 mm 5.36 m/s, 222° - -
1788604060 26.67° C 52% 1013.2 hPa 0 mm 12.96 m/s, 163° - -
1788603760 26.11° C 54% 1013.2 hPa 0 mm 13.41 m/s, 164° - -
1788603460 26.11° C 57% 1013.2 hPa 0 mm 22.8 m/s, 258° - -
1788603160 26.67° C 56% 1013.2 hPa 0 mm 17.88 m/s, 246° - -
1788602860 26.67° C 56% 1013.2 hPa 0 mm 12.96 m/s, 115° - -
1788602560 26.11° C 56% 1013.2 hPa 0 mm 32.63 m/s, 276° - -
1788602260 25.56° C 56% 1013.2 hPa 0 mm 29.06 m/s, 289° - -
1788601960 25.56° C 54% 1013.2 hPa 0 mm 19.67 m/s, 140° - -
1788601660 26.11° C 55% 1013.2 hPa 0 mm 21.01 m/s, 239° - -
1788601360 25.56° C 56% 1013.2 hPa 0 mm 16.54 m/s, 199° - -
1788601059 26.11° C 57% 1012.9 hPa 0 mm 12.07 m/s, 168° - -
1788600759 25.56° C 57% 1013.6 hPa 0 mm 22.8 m/s, 210° - -
1788600459 25.56° C 57% 1013.2 hPa 0 mm 34.42 m/s, 233° - -
1788600159 25.56° C 58% 1013.2 hPa 0 mm 27.27 m/s, 195° - -
1788599859 25.56° C 58% 1013.2 hPa 0 mm 10.28 m/s, 108° - -
1788599559 25.56° C 57% 1013.2 hPa 0 mm 9.83 m/s, 207° - -
1788599259 25.56° C 58% 1013.2 hPa 0 mm 9.83 m/s, 270° - -
1788598959 25.56° C 58% 1012.9 hPa 0 mm 19.67 m/s, 179° - -
1788598658 25.56° C 58% 1013.2 hPa 0 mm 8.05 m/s, 116° - -
1788598358 25.56° C 59% 1012.9 hPa 0 mm 28.16 m/s, 186° - -
1788598076 25.56° C 60% 1013.2 hPa 0 mm 12.96 m/s, 234° - -
1788597759 25.56° C 58% 1013.2 hPa 0 mm 13.86 m/s, 58° - -
1788597459 25.56° C 59% 1013.6 hPa 0 mm 14.75 m/s, 250° - -

* Rain latest hour (hover to see other rain measurements)
** Current wind speed in m/s (hover to see current wind gust speed)